Total_Precipitation_Accumulation
0.00 0.01 0.04 0.10 0.18 0.29 0.38 0.20 0.07 0.04 0.03 0.02 0.02 0.02 0.01 0.01 0.02 0.05 0.01 0.00 0.00 0.00 0.00 0.01 0.01 0.01 0.01 0.01 0.00 0.00 0.00 0.01 0.01 0.01 0.01 0.01 0.00 0.01 0.01 0.00 0.01 0.01 0.01 0.01 0.01 0.01 0.01 0.01 0.01
0.00 0.01 0.03 0.09 0.19 0.30 0.32 0.14 0.06 0.04 0.02 0.02 0.02 0.01 0.01 0.00 0.00 0.00 0.00 0.00 0.00 0.00 0.00 0.00 0.01 0.00 0.00 0.00 0.01 0.01 0.01 0.01 0.01 0.01 0.01 0.01 0.01 0.01 0.01 0.01 0.01 0.01 0.01 0.02 0.02 0.02 0.01 0.01 0.00
0.00 0.00 0.02 0.04 0.12 0.25 0.38 0.14 0.08 0.06 0.05 0.04 0.02 0.00 0.00 0.00 0.00 0.00 0.00 0.00 0.00 0.00 0.00 0.00 0.00 0.00 0.00 0.00 0.01 0.01 0.01 0.01 0.01 0.01 0.01 0.01 0.01 0.01 0.02 0.01 0.02 0.02 0.02 0.03 0.03 0.02 0.02 0.01 0.00
0.00 0.00 0.01 0.01 0.03 0.08 0.18 0.16 0.12 0.10 0.08 0.05 0.02 0.00 0.00 0.00 0.00 0.00 0.00 0.00 0.00 0.00 0.00 0.00 0.00 0.00 0.00 0.00 0.01 0.01 0.01 0.01 0.01 0.01 0.01 0.01 0.02 0.02 0.02 0.02 0.03 0.03 0.04 0.04 0.04 0.04 0.03 0.02 0.01
0.00 0.00 0.00 0.00 0.01 0.02 0.06 0.07 0.13 0.14 0.08 0.05 0.02 0.01 0.01 0.00 0.00 0.00 0.00 0.00 0.00 0.00 0.00 0.00 0.00 0.00 0.00 0.00 0.00 0.01 0.01 0.01 0.01 0.01 0.01 0.01 0.02 0.02 0.03 0.03 0.03 0.04 0.05 0.05 0.06 0.05 0.05 0.04 0.02
0.00 0.00 0.00 0.00 0.01 0.01 0.03 0.06 0.13 0.16 0.11 0.07 0.07 0.03 0.01 0.01 0.01 0.01 0.00 0.00 0.00 0.00 0.00 0.01 0.01 0.01 0.01 0.00 0.01 0.01 0.01 0.01 0.01 0.01 0.02 0.02 0.02 0.02 0.03 0.03 0.03 0.04 0.05 0.06 0.07 0.07 0.06 0.06 0.05
0.00 0.00 0.00 0.00 0.00 0.01 0.04 0.06 0.10 0.12 0.12 0.11 0.13 0.11 0.06 0.05 0.02 0.01 0.01 0.01 0.00 0.00 0.00 0.01 0.01 0.01 0.02 0.01 0.01 0.01 0.01 0.02 0.02 0.02 0.02 0.02 0.02 0.02 0.03 0.04 0.04 0.05 0.06 0.07 0.07 0.07 0.07 0.07 0.07
0.00 0.00 0.00 0.00 0.00 0.02 0.03 0.06 0.08 0.09 0.13 0.10 0.12 0.19 0.11 0.07 0.04 0.03 0.02 0.03 0.02 0.02 0.01 0.02 0.02 0.03 0.03 0.03 0.03 0.03 0.03 0.04 0.03 0.03 0.03 0.03 0.03 0.03 0.04 0.04 0.05 0.06 0.09 0.09 0.09 0.09 0.10 0.12 0.12
0.00 0.00 0.00 0.00 0.00 0.02 0.03 0.04 0.05 0.05 0.05 0.06 0.10 0.15 0.12 0.06 0.07 0.07 0.05 0.04 0.04 0.03 0.03 0.03 0.04 0.05 0.06 0.06 0.06 0.07 0.07 0.08 0.08 0.07 0.08 0.07 0.05 0.04 0.06 0.10 0.16 0.19 0.23 0.28 0.28 0.28 0.30 0.33 0.28
0.00 0.00 0.00 0.00 0.00 0.01 0.02 0.02 0.02 0.02 0.04 0.12 0.21 0.21 0.19 0.12 0.09 0.12 0.12 0.10 0.09 0.07 0.07 0.08 0.09 0.09 0.10 0.10 0.14 0.18 0.18 0.20 0.19 0.21 0.27 0.25 0.23 0.15 0.11 0.28 0.48 0.52 0.63 0.69 0.73 0.89 0.84 0.71 0.50
0.00 0.00 0.00 0.00 0.00 0.00 0.01 0.01 0.02 0.02 0.04 0.08 0.17 0.24 0.19 0.13 0.15 0.16 0.18 0.18 0.18 0.16 0.16 0.19 0.19 0.18 0.19 0.20 0.22 0.27 0.33 0.42 0.47 0.52 0.61 0.70 0.71 0.53 0.37 0.52 0.77 0.85 0.97 0.97 1.17 1.39 1.09 0.94 0.82
0.00 0.00 0.00 0.00 0.00 0.00 0.00 0.01 0.02 0.03 0.04 0.05 0.12 0.25 0.32 0.30 0.30 0.33 0.30 0.30 0.32 0.36 0.35 0.36 0.38 0.38 0.36 0.36 0.35 0.34 0.35 0.44 0.53 0.67 0.79 1.10 1.16 1.10 1.03 1.04 0.97 1.10 1.16 1.39 1.44 1.39 1.22 1.19 1.06
0.00 0.00 0.00 0.00 0.00 0.00 0.01 0.01 0.02 0.03 0.04 0.06 0.09 0.16 0.32 0.39 0.41 0.41 0.38 0.37 0.45 0.65 0.79 0.81 0.80 0.69 0.63 0.57 0.50 0.47 0.47 0.49 0.52 0.72 0.90 1.24 1.41 1.43 1.53 1.26 1.16 1.12 1.29 1.56 1.51 1.32 1.33 1.41 1.41
0.00 0.00 0.00 0.00 0.00 0.01 0.01 0.02 0.02 0.03 0.04 0.06 0.09 0.13 0.20 0.28 0.28 0.32 0.40 0.52 0.74 1.01 1.24 1.30 1.27 1.11 0.98 0.86 0.78 0.78 0.76 0.66 0.59 0.76 0.86 1.27 1.56 1.51 1.39 1.36 1.34 1.26 1.42 1.47 1.53 1.55 1.65 1.66 1.69
0.00 0.00 0.00 0.01 0.01 0.01 0.02 0.03 0.03 0.04 0.05 0.06 0.09 0.12 0.16 0.20 0.25 0.40 0.57 0.82 1.15 1.43 1.60 1.73 1.79 1.61 1.44 1.34 1.21 1.10 1.00 0.90 0.83 0.83 0.85 1.17 1.44 1.50 1.51 1.41 1.30 1.34 1.44 1.50 1.56 1.58 1.63 1.51 1.54
0.00 0.00 0.00 0.02 0.03 0.03 0.03 0.09 0.09 0.09 0.07 0.08 0.12 0.15 0.20 0.25 0.34 0.50 0.66 0.92 1.31 1.71 2.16 2.31 2.16 1.97 1.79 1.60 1.41 1.35 1.33 1.28 1.13 0.94 0.85 0.93 1.12 1.27 1.32 1.21 1.20 1.30 1.21 1.19 1.22 1.20 1.23 1.24 1.34
0.00 0.00 0.02 0.07 0.07 0.05 0.07 0.15 0.19 0.12 0.10 0.14 0.19 0.23 0.29 0.35 0.46 0.63 0.76 1.01 1.40 1.98 2.67 2.74 2.33 2.04 1.85 1.70 1.61 1.55 1.51 1.30 1.17 1.02 0.93 0.85 0.81 0.78 0.82 0.79 0.82 0.90 0.90 0.90 0.87 1.00 1.07 1.11 1.20
0.01 0.03 0.08 0.13 0.11 0.10 0.15 0.21 0.19 0.16 0.20 0.23 0.21 0.23 0.28 0.34 0.45 0.57 0.74 1.08 1.71 2.52 3.12 3.09 2.59 2.19 1.95 1.79 1.61 1.42 1.33 1.19 1.06 0.97 0.87 0.71 0.66 0.61 0.57 0.56 0.57 0.57 0.60 0.66 0.69 0.72 0.82 0.84 0.87
0.02 0.04 0.13 0.17 0.13 0.20 0.20 0.20 0.29 0.41 0.40 0.31 0.24 0.19 0.19 0.25 0.38 0.59 1.02 1.68 2.49 3.20 3.36 2.94 2.50 2.22 1.96 1.64 1.16 0.85 0.74 0.71 0.67 0.57 0.51 0.46 0.42 0.43 0.45 0.41 0.40 0.39 0.39 0.40 0.44 0.51 0.56 0.58 0.66
0.03 0.03 0.12 0.19 0.13 0.14 0.19 0.31 0.48 0.52 0.43 0.28 0.22 0.19 0.23 0.38 0.64 1.16 1.97 2.49 2.51 2.43 2.06 1.67 1.49 1.36 1.09 0.81 0.56 0.45 0.41 0.38 0.36 0.34 0.36 0.34 0.29 0.30 0.30 0.30 0.31 0.31 0.28 0.29 0.31 0.34 0.36 0.39 0.50
0.07 0.06 0.12 0.20 0.11 0.08 0.21 0.49 0.59 0.51 0.44 0.31 0.23 0.22 0.39 0.71 1.14 1.78 2.20 2.09 1.55 1.07 0.89 0.81 0.74 0.54 0.39 0.35 0.31 0.27 0.24 0.25 0.23 0.22 0.24 0.24 0.21 0.22 0.23 0.23 0.24 0.27 0.28 0.28 0.31 0.30 0.30 0.30 0.33
0.06 0.04 0.04 0.07 0.08 0.19 0.35 0.67 0.73 0.51 0.50 0.40 0.33 0.27 0.38 0.60 0.82 1.11 1.24 0.99 0.82 0.71 0.63 0.65 0.57 0.34 0.27 0.23 0.19 0.18 0.17 0.19 0.19 0.19 0.19 0.19 0.17 0.18 0.17 0.17 0.16 0.18 0.23 0.28 0.28 0.33 0.32 0.30 0.25
0.03 0.02 0.03 0.06 0.11 0.18 0.32 0.57 0.68 0.54 0.60 0.45 0.30 0.25 0.29 0.43 0.48 0.45 0.44 0.40 0.39 0.40 0.43 0.51 0.50 0.43 0.34 0.28 0.22 0.20 0.18 0.17 0.18 0.19 0.19 0.20 0.20 0.18 0.18 0.18 0.16 0.15 0.15 0.20 0.22 0.30 0.34 0.35 0.29
0.03 0.04 0.06 0.11 0.16 0.33 0.47 0.60 0.77 0.71 0.74 0.55 0.36 0.26 0.27 0.40 0.42 0.34 0.26 0.23 0.24 0.25 0.27 0.33 0.43 0.52 0.49 0.43 0.35 0.29 0.23 0.21 0.19 0.18 0.19 0.19 0.18 0.18 0.17 0.18 0.18 0.19 0.17 0.15 0.15 0.19 0.26 0.33 0.35
0.04 0.04 0.09 0.31 0.51 0.60 0.46 0.54 0.78 0.62 0.57 0.41 0.21 0.14 0.21 0.36 0.45 0.42 0.31 0.23 0.18 0.17 0.15 0.13 0.15 0.24 0.28 0.28 0.30 0.31 0.30 0.26 0.21 0.18 0.15 0.17 0.16 0.16 0.16 0.16 0.17 0.19 0.19 0.19 0.17 0.15 0.19 0.25 0.30
0.03 0.02 0.04 0.08 0.13 0.25 0.34 0.60 0.76 0.60 0.38 0.17 0.07 0.06 0.15 0.22 0.25 0.25 0.19 0.13 0.08 0.06 0.06 0.04 0.04 0.05 0.07 0.09 0.13 0.18 0.21 0.17 0.15 0.21 0.17 0.17 0.21 0.22 0.21 0.16 0.15 0.16 0.18 0.18 0.18 0.16 0.17 0.20 0.25
0.02 0.01 0.02 0.02 0.04 0.14 0.36 0.59 0.54 0.46 0.31 0.13 0.07 0.05 0.06 0.08 0.09 0.10 0.10 0.08 0.06 0.04 0.03 0.03 0.02 0.02 0.02 0.03 0.05 0.09 0.15 0.15 0.14 0.16 0.17 0.16 0.22 0.23 0.21 0.18 0.15 0.14 0.15 0.17 0.18 0.18 0.19 0.22 0.25
0.02 0.01 0.01 0.02 0.05 0.09 0.22 0.50 0.61 0.47 0.32 0.13 0.08 0.07 0.06 0.08 0.07 0.07 0.06 0.06 0.05 0.04 0.04 0.04 0.03 0.02 0.02 0.02 0.03 0.05 0.12 0.15 0.16 0.15 0.17 0.19 0.18 0.18 0.17 0.16 0.13 0.12 0.13 0.15 0.16 0.18 0.22 0.25 0.31
0.02 0.02 0.02 0.02 0.03 0.05 0.09 0.24 0.25 0.20 0.13 0.09 0.05 0.03 0.04 0.04 0.05 0.04 0.04 0.04 0.04 0.03 0.03 0.03 0.03 0.03 0.02 0.02 0.02 0.02 0.06 0.10 0.14 0.18 0.19 0.20 0.19 0.17 0.15 0.14 0.14 0.12 0.12 0.13 0.16 0.18 0.20 0.24 0.30
0.02 0.02 0.02 0.03 0.03 0.03 0.05 0.15 0.10 0.10 0.09 0.06 0.02 0.01 0.01 0.01 0.01 0.01 0.02 0.02 0.02 0.03 0.03 0.04 0.04 0.03 0.03 0.02 0.02 0.01 0.01 0.03 0.06 0.11 0.14 0.16 0.16 0.15 0.15 0.14 0.13 0.10 0.10 0.13 0.18 0.20 0.21 0.23 0.27